Horseshoe Bay, TX

1:09 AM MST on January 20, 2018 (GMT -0700)
Horseshoe Bay

Weather History for KDZB - May, 2014

Change the Weather History Date:

Thursday, May 1, 2014

  Actual Average (KBMQ) Record (KBMQ)
Temperature  
Mean Temperature 62 °F -  
Max Temperature 77 °F 80 °F 93 °F (2002)
Min Temperature 46 °F 59 °F 46 °F (2005)
Degree Days  
Heating Degree Days 4    
Growing Degree Days 12 (Base 50)    
Moisture  
Dew Point 29 °F    
Average Humidity 32    
Maximum Humidity 61    
Minimum Humidity 14    
Precipitation  
Precipitation 0.00 in - - ()
Sea Level Pressure  
Sea Level Pressure 30.12 in    
Wind  
Wind Speed 2 mph (ENE)    
Max Wind Speed 9 mph    
Max Gust Speed -    
Visibility 10 miles    
Events      
Averages and records for this station are not official NWS values.
T = Trace of Precipitation, MM = Missing Value Source: NWS Daily Summary

Daily Weather History Graph

Daily Weather History Graph

Search for Another Location

Airport or City:

Trip Planner

Search our weather history database for the weather conditions in past years. The results will help you decide how hot, cold, wet, or windy it might be!

Date:

Astronomy

May. 01, 2014 Rise Set
Actual Time 5:49 AM MDT 7:11 PM MDT
Civil Twilight 5:24 AM MDT 7:37 PM MDT
Nautical Twilight 4:53 AM MDT 8:07 PM MDT
Astronomical Twilight 4:22 AM MDT 8:39 PM MDT
Moon 7:42 AM MDT (5/1) 9:41 PM MDT (5/1)
Length of Visible Light 14h 12m
Length of Day
13h 21m
Waxing Crescent, 7% of the Moon is Illuminated
May 1
Waxing Crescent
May 6
First Quarter
May 14
Full
May 21
Last Quarter
May 28
New

Hourly Weather History & Observations

Time (MDT) Temp. Windchill Dew Point Humidity Pressure Visibility Wind Dir Wind Speed Gust Speed Precip Events Conditions
12:15 AM 48.6 °F - 33.1 °F 55% 30.17 in 10.0 mi Calm Calm - N/A   Clear
12:35 AM 47.8 °F - 33.3 °F 57% 30.17 in 10.0 mi Calm Calm - N/A   Clear
12:55 AM 46.8 °F - 33.4 °F 60% 30.17 in 10.0 mi Calm Calm - N/A   Clear
1:15 AM 46.8 °F - 33.3 °F 59% 30.17 in 10.0 mi Calm Calm - N/A   Clear
1:35 AM 46.4 °F - 33.4 °F 61% 30.17 in 10.0 mi Calm Calm - N/A   Clear
1:55 AM 46.4 °F - 33.1 °F 60% 30.17 in 10.0 mi Calm Calm - N/A   Clear
2:15 AM 46.0 °F - 33.3 °F 61% 30.16 in 10.0 mi Calm Calm - N/A   Clear
2:35 AM 46.4 °F 45.2 °F 33.1 °F 60% 30.16 in 10.0 mi South 3.5 mph - N/A   Clear
2:55 AM 48.2 °F - 32.9 °F 55% 30.16 in 10.0 mi Calm Calm - N/A   Clear
3:15 AM 48.9 °F - 33.1 °F 54% 30.16 in 10.0 mi Calm Calm - N/A   Clear
3:35 AM 49.8 °F - 33.6 °F 54% 30.16 in 10.0 mi South 3.5 mph - N/A   Clear
3:55 AM 50.5 °F - 33.4 °F 52% 30.16 in 10.0 mi Calm Calm - N/A   Clear
4:15 AM 51.3 °F - 33.3 °F 50% 30.16 in 10.0 mi Calm Calm - N/A   Clear
4:35 AM 52.0 °F - 33.1 °F 49% 30.17 in 10.0 mi Calm Calm - N/A   Clear
4:55 AM 52.2 °F - 33.8 °F 50% 30.17 in 10.0 mi Calm Calm - N/A   Clear
5:15 AM 52.2 °F - 34.5 °F 51% 30.17 in 10.0 mi Calm Calm - N/A   Clear
5:35 AM 52.0 °F - 35.4 °F 53% 30.17 in 10.0 mi Calm Calm - N/A   Clear
6:15 AM 52.7 °F - 33.3 °F 48% 30.18 in 10.0 mi Calm Calm - N/A   Clear
6:35 AM 53.1 °F - 34.9 °F 50% 30.18 in 10.0 mi Calm Calm - N/A   Clear
6:55 AM 55.0 °F - 34.3 °F 46% 30.18 in 10.0 mi Calm Calm - N/A   Clear
7:15 AM 57.0 °F - 32.5 °F 40% 30.19 in 10.0 mi Calm Calm - N/A   Clear
7:35 AM 59.2 °F - 32.4 °F 36% 30.19 in 10.0 mi West 4.6 mph - N/A   Clear
7:55 AM 60.6 °F - 31.8 °F 34% 30.20 in 10.0 mi WNW 4.6 mph - N/A   Clear
8:15 AM 60.8 °F - 32.9 °F 35% 30.19 in 10.0 mi Calm Calm - N/A   Clear
9:15 AM 64.2 °F - 29.1 °F 27% 30.20 in 10.0 mi NW 4.6 mph - N/A   Clear
9:35 AM 66.7 °F - 27.1 °F 23% 30.19 in 10.0 mi Calm Calm - N/A   Clear
9:55 AM 67.5 °F - 27.1 °F 22% 30.19 in 10.0 mi North 3.5 mph - N/A   Clear
10:15 AM 69.3 °F - 26.1 °F 20% 30.18 in 10.0 mi NE 6.9 mph - N/A   Clear
10:35 AM 71.1 °F - 23.4 °F 17% 30.18 in 10.0 mi NNE 9.2 mph - N/A   Clear
10:55 AM 71.2 °F - 23.0 °F 16% 30.17 in 10.0 mi NNE 9.2 mph - N/A   Clear
11:15 AM 72.0 °F - 22.1 °F 15% 30.17 in 10.0 mi North 5.8 mph - N/A   Clear
11:35 AM 72.3 °F - 21.9 °F 15% 30.16 in 10.0 mi NNE 9.2 mph - N/A   Clear
12:15 PM 73.2 °F - 23.9 °F 16% 30.14 in 10.0 mi NNE 8.1 mph - N/A   Clear
12:35 PM 71.2 °F - 22.8 °F 16% 30.13 in 10.0 mi ENE 3.5 mph - N/A   Clear
12:55 PM 72.5 °F - 24.1 °F 16% 30.12 in 10.0 mi ENE 3.5 mph - N/A   Clear
1:15 PM 73.4 °F - 23.5 °F 16% 30.12 in 10.0 mi NE 8.1 mph - N/A   Clear
1:35 PM 75.7 °F - 25.0 °F 15% 30.11 in 10.0 mi ESE 5.8 mph - N/A   Clear
2:15 PM 75.4 °F - 24.4 °F 15% 30.08 in 10.0 mi NE 8.1 mph - N/A   Clear
2:35 PM 76.3 °F - 24.8 °F 15% 30.07 in 10.0 mi SSE 5.8 mph - N/A   Clear
2:55 PM 76.5 °F - 24.8 °F 15% 30.06 in 10.0 mi NNE 8.1 mph - N/A   Clear
3:15 PM 76.6 °F - 24.3 °F 14% 30.04 in 10.0 mi West 5.8 mph - N/A   Clear
3:35 PM 77.5 °F - 25.3 °F 15% 30.03 in 10.0 mi South 5.8 mph - N/A   Scattered Clouds
3:55 PM 77.4 °F - 24.1 °F 14% 30.03 in 7.0 mi ESE 3.5 mph - N/A   Scattered Clouds
4:15 PM 73.8 °F - 23.0 °F 15% 30.02 in 10.0 mi Calm Calm - N/A   Clear
4:35 PM 74.7 °F - 23.7 °F 15% 30.02 in 10.0 mi Calm Calm - N/A   Scattered Clouds
4:55 PM 74.7 °F - 23.7 °F 15% 30.02 in 10.0 mi Calm Calm - N/A   Scattered Clouds
5:15 PM 75.4 °F - 24.1 °F 15% 30.01 in 10.0 mi NNW 3.5 mph - N/A   Mostly Cloudy
5:35 PM 74.3 °F - 23.5 °F 15% 30.01 in 10.0 mi NNE 4.6 mph - N/A   Overcast
5:55 PM 73.8 °F - 23.0 °F 15% 30.01 in 10.0 mi Calm Calm - N/A   Overcast
6:15 PM 73.2 °F - 23.7 °F 16% 30.01 in 10.0 mi Calm Calm - N/A   Overcast
6:35 PM 73.2 °F - 23.5 °F 16% 30.02 in 10.0 mi Calm Calm - N/A   Overcast
6:55 PM 72.5 °F - 23.9 °F 16% 30.03 in 10.0 mi Calm Calm - N/A   Overcast
7:15 PM 71.6 °F - 23.7 °F 17% 30.03 in 10.0 mi Calm Calm - N/A   Overcast
7:35 PM 70.7 °F - 25.5 °F 18% 30.04 in 10.0 mi Calm Calm - N/A   Mostly Cloudy
7:55 PM 69.8 °F - 25.9 °F 19% 30.05 in 10.0 mi Calm Calm - N/A   Scattered Clouds
8:15 PM 68.9 °F - 27.5 °F 21% 30.06 in 10.0 mi SSE 5.8 mph - N/A   Scattered Clouds
8:35 PM 67.5 °F - 28.4 °F 23% 30.07 in 10.0 mi SSE 3.5 mph - N/A   Scattered Clouds
8:55 PM 65.7 °F - 28.8 °F 25% 30.07 in 10.0 mi SSE 3.5 mph - N/A   Clear
9:15 PM 64.6 °F - 29.1 °F 26% 30.08 in 10.0 mi South 3.5 mph - N/A   Scattered Clouds
9:35 PM 63.5 °F - 29.3 °F 28% 30.09 in 10.0 mi Calm Calm - N/A   Mostly Cloudy
9:55 PM 61.0 °F - 29.5 °F 30% 30.09 in 10.0 mi Calm Calm - N/A   Scattered Clouds
10:15 PM 58.3 °F - 29.7 °F 34% 30.09 in 10.0 mi Calm Calm - N/A   Scattered Clouds
10:35 PM 55.8 °F - 30.0 °F 37% 30.09 in 10.0 mi Calm Calm - N/A   Clear
10:55 PM 54.1 °F - 30.7 °F 41% 30.08 in 10.0 mi SSE 3.5 mph - N/A   Clear
11:15 PM 52.7 °F - 30.9 °F 43% 30.08 in 10.0 mi SSW 3.5 mph - N/A   Clear
11:35 PM 52.7 °F - 30.9 °F 43% 30.08 in 10.0 mi Calm Calm - N/A   Clear
11:55 PM 51.3 °F - 31.3 °F 46% 30.08 in 10.0 mi South 3.5 mph - N/A   Clear